Terug naar catalogus

TITAN 3C TRANSTAGE DEB

LostMEO
NORAD 38692·DEBRIS·🇺🇸 United States

Gelanceerd Sep 26, 1968 vanaf Cape Canaveral Space Force Station

Loading…

Volgende Passages (komende 24 uur)

TLE

VerouderdSource: Space-Track

Epoch: Aug 8, 2026, 04:41 UTC

1 38692U 68081S   26220.19517185 -.00000210  00000-0  00000-0 0  9994
2 38692   1.9964  22.7089 0298766 293.1016  64.1942  0.99219130 41901

Volg TITAN 3C TRANSTAGE DEB in realtime met AllMySat

Download on the App Store